User: anonymous   Login
Location: Unspecified
(0.0000°N, 0.0000°E)
Time: 23:58:15
(UTC+00:00)
Language:

STARLINK-37214 - Orbit

View from above orbital plane
View from above orbital plane
View from above satellite
View from above satellite

Ground track
Ground track

The orbit is defined by the following mean orbital elements,

1 68345U          26145.58335647 +.00000000 +00000-0 -52386-1 0 00004
2 68345  53.1592 346.6205 0001299 112.1883 161.0197 15.38948397    06
Epoch (UTC): 25 May 2026 14:00:01
Eccentricity: 0.0001299
inclination: 53.1592°
perigee height: 448 km
apogee height: 450 km
right ascension of ascending node: 346.6205°
argument of perigee: 112.1883°
revolutions per day: 15.38948397
mean anomaly at epoch: 161.0197°

The dashed part of the orbit path shows where the satellite is in the earth's shadow,  

DLR